Dewpoint
36 34 33 33 31 29 27 27 30 31 31 31 29 29 31 29 29 31 31 32 31 29
35 34 33 33 31 29 27 24 28 29 29 28 26 27 27 27 27 28 29 29 30 28
34 33 32 30 28 27 26 26 26 26 24 22 24 24 23 22 25 25 24 24 26 27
33 33 31 28 27 25 26 25 24 24 21 20 20 20 21 20 21 21 23 24 24 24
32 31 29 28 26 27 25 25 23 22 22 20 20 20 20 20 20 20 21 22 23 21
32 30 28 27 26 25 24 24 23 21 19 19 20 19 19 18 18 19 20 21 22 21
29 28 28 26 24 23 23 23 24 23 21 20 18 17 17 17 17 17 19 20 21 21
29 28 28 26 24 24 23 23 23 22 21 20 19 17 19 17 17 17 18 19 19 21
30 28 29 26 26 24 24 24 25 23 22 21 16 21 21 20 19 19 19 20 20 20
32 30 31 26 24 25 27 26 26 27 26 27 26 20 20 20 24 24 24 23 23 22
30 28 27 27 26 27 29 27 28 27 27 26 26 19 18 18 25 24 23 24 22 22
29 26 25 23 24 27 28 28 27 27 26 26 25 18 16 21 24 23 22 22 21 20
28 25 23 25 24 27 28 27 27 27 26 24 24 18 16 21 26 22 22 20 20 14
27 25 24 25 27 26 26 26 25 24 25 24 25 21 15 14 24 22 22 22 20 19
Lifted_Index
9 9 8 8 8 8 9 11 12 13 14 15 15 15 15 15 15 15 15 14 14 14
9 8 8 8 9 9 11 12 13 14 15 15 15 15 15 15 15 15 15 15 15 15
8 8 9 9 9 10 11 12 13 14 15 15 15 15 15 15 15 15 15 15 15 15
8 8 8 8 9 10 12 13 14 15 15 15 15 15 15 15 15 14 14 15 15 15
7 7 7 7 9 11 12 13 14 15 15 15 15 15 15 15 14 14 14 15 15 15
6 6 6 7 9 11 12 13 14 15 15 15 15 15 15 15 15 15 15 15 15 15
6 6 7 8 10 12 13 14 14 15 15 15 15 15 16 16 15 15 15 15 15 15
5 6 7 9 11 12 13 14 15 15 15 16 16 16 16 16 16 16 15 16 16 16
5 5 7 9 11 13 14 15 15 15 16 16 16 16 16 16 16 16 16 16 16 16
4 5 7 10 12 13 14 15 15 16 16 16 16 16 17 17 17 16 16 16 16 17
5 5 7 10 12 13 14 15 15 16 16 16 16 17 17 17 17 17 17 17 17 17
5 6 7 10 12 14 15 15 15 16 16 16 17 17 18 18 17 17 17 18 18 18
6 7 8 11 13 14 15 15 16 16 17 17 17 18 18 18 18 17 17 18 18 18
6 7 10 12 14 15 15 15 16 16 17 18 18 18 18 18 18 17 17 17 18 18